記事タイトル:Comet C/2003 O2 (LINEAR) 

最新の情報は「更新」や「再読み込み」ボタンを押してリロードしてご覧ください。

書き込み欄へ  ヘルプ
お名前: 佐藤 裕久   
M. Bezpalko (Lincoln研究所)の通報によれば、LINEARによって次の位置にP.A.230°
に42″の尾のある彗星を発見した。
S. Sanchez, R. StossとJ. Nomen (Mallorca)、R. Trentman とR. Frederick 
(Louisburg, KS)のCCD観測によって次のように報告されている。

7月30日〜31日、光度16.9-17.9、P.A.245-250°に最長6′の尾がある。

同じく、P. Birtwhistle (Great Shefford、英国)の観測では、17.9等で9″の中央
集光あり、非常に拡散し広がった尾がある。

発見位置は次のとおり、

     2003 UT             R.A. (2000) Decl.       Mag.
     July 29.37618    1 55 23.89   +14 28 46.1   18.6

暫定放物線軌道要素、位置推算表は次のとおり、

Orbital elements:
    C/2003 O2 (LINEAR)
T 2003 Sept. 2.110 TT                                   MPC
q   1.60716              (2000.0)            P               Q
                   Peri.   30.140       +0.946983       -0.316282
                   Node   347.894       +0.213604       +0.751103
e   1.0            Incl.   15.623       +0.239994       +0.579491
From 25 observations 2003 July 29-31.

Ephemeris:
    C/2003 O2 (LINEAR)
Date    TT    R. A. (2000) Decl.     Delta      r     Elong.  Phase   m1
2003 07 30    01 56.85   +14 46.1    1.259    1.672    94.1    37.3  16.7
2003 08 09    02 20.39   +19 27.5    1.176    1.640    96.7    37.9  16.5
2003 08 19    02 44.11   +24 12.5    1.107    1.619    99.5    38.1  16.3
2003 08 29    03 07.62   +28 53.8    1.051    1.608   102.5    37.8  16.2
2003 09 08    03 30.29   +33 24.1    1.008    1.609   105.9    37.0  16.1
2003 09 18    03 51.37   +37 36.5    0.976    1.622   109.8    35.7  16.0
2003 09 28    04 09.80   +41 25.4    0.955    1.645   114.4    33.7  16.1
2003 10 08    04 24.45   +44 46.2    0.943    1.679   119.6    31.2  16.1

短周期軌道の可能性がある。
 
(IAUC 8172、MPEC 2003-O43)
[2003年8月2日 0時23分59秒]

この記事への返信をどうぞ。
氏名
E-mail URL



記事一覧に戻る